contact:dominique.lefevre@mio.osupytheas.fr, maurice.libes@osupytheas.fr, didier.mallarino@osupytheas.fr
Project:EMSO http://www.emso-fr.org/EMSO-France
Depth: 2436.0 m
Title:EMSO Ligure Ouest : Data MII capteur MICROCAT
DateTime_Computer,Latitude,Longitude,Temperature,Conductivity,Pressure,DateTime_Instrument
DateTime_Computer,Latitude,Longitude,degC,S m-1,dbar,DateTime_Instrument
2022-09-28T00:01:38Z,42.805,6.029,13.3086,4.60084,2470.544,2022-9-28T02:03:32Z
2022-09-28T00:04:42Z,42.805,6.029,13.3094,4.60080,2470.544,2022-9-28T02:06:35Z
2022-09-28T00:07:45Z,42.805,6.029,13.3092,4.60085,2470.544,2022-9-28T02:09:38Z
2022-09-28T00:10:48Z,42.805,6.029,13.3087,4.60084,2470.53,2022-9-28T02:12:41Z
2022-09-28T00:13:51Z,42.805,6.029,13.3084,4.60074,2470.544,2022-9-28T02:15:44Z
2022-09-28T00:16:54Z,42.805,6.029,13.3102,4.60088,2470.567,2022-9-28T02:18:48Z
2022-09-28T00:19:57Z,42.805,6.029,13.3085,4.60085,2470.507,2022-9-28T02:21:51Z
2022-09-28T00:23:00Z,42.805,6.029,13.3071,4.60094,2470.53,2022-9-28T02:24:54Z
2022-09-28T00:26:03Z,42.805,6.029,13.3065,4.60079,2470.52,2022-9-28T02:27:57Z
2022-09-28T00:29:07Z,42.805,6.029,13.3056,4.60081,2470.52,2022-9-28T02:31:00Z
2022-09-28T00:32:10Z,42.805,6.029,13.3056,4.60072,2470.544,2022-9-28T02:34:03Z
2022-09-28T00:35:13Z,42.805,6.029,13.3042,4.60072,2470.497,2022-9-28T02:37:06Z
2022-09-28T00:38:16Z,42.805,6.029,13.3046,4.60069,2470.497,2022-9-28T02:40:09Z
2022-09-28T00:41:19Z,42.805,6.029,13.3047,4.60080,2470.483,2022-9-28T02:43:13Z
2022-09-28T00:44:22Z,42.805,6.029,13.3049,4.60094,2470.507,2022-9-28T02:46:16Z
2022-09-28T00:47:25Z,42.805,6.029,13.3036,4.60092,2470.53,2022-9-28T02:49:19Z
2022-09-28T00:50:28Z,42.805,6.029,13.3040,4.60089,2470.52,2022-9-28T02:52:22Z
2022-09-28T00:53:32Z,42.805,6.029,13.3041,4.60070,2470.53,2022-9-28T02:55:25Z
2022-09-28T00:56:35Z,42.805,6.029,13.3034,4.60104,2470.544,2022-9-28T02:58:28Z
2022-09-28T00:59:38Z,42.805,6.029,13.3041,4.60106,2470.483,2022-9-28T03:01:31Z
2022-09-28T01:02:41Z,42.805,6.029,13.3035,4.60095,2470.497,2022-9-28T03:04:34Z
2022-09-28T01:05:44Z,42.805,6.029,13.3033,4.60091,2470.497,2022-9-28T03:07:38Z
2022-09-28T01:08:47Z,42.805,6.029,13.3043,4.60087,2470.497,2022-9-28T03:10:41Z
2022-09-28T01:11:50Z,42.805,6.029,13.3043,4.60070,2470.507,2022-9-28T03:13:44Z
2022-09-28T01:14:53Z,42.805,6.029,13.3034,4.60089,2470.507,2022-9-28T03:16:47Z
2022-09-28T01:17:56Z,42.805,6.029,13.3045,4.60098,2470.46,2022-9-28T03:19:50Z
2022-09-28T01:21:00Z,42.805,6.029,13.3047,4.60088,2470.483,2022-9-28T03:22:53Z
2022-09-28T01:24:03Z,42.805,6.029,13.3053,4.60093,2470.497,2022-9-28T03:25:56Z
2022-09-28T01:27:06Z,42.805,6.029,13.3048,4.60118,2470.497,2022-9-28T03:28:59Z
2022-09-28T01:30:09Z,42.805,6.029,13.3046,4.60112,2470.46,2022-9-28T03:32:02Z
2022-09-28T01:33:12Z,42.805,6.029,13.3040,4.60098,2470.474,2022-9-28T03:35:06Z
2022-09-28T01:36:15Z,42.805,6.029,13.3033,4.60114,2470.497,2022-9-28T03:38:09Z
2022-09-28T01:39:18Z,42.805,6.029,13.3036,4.60099,2470.497,2022-9-28T03:41:12Z
2022-09-28T01:42:21Z,42.805,6.029,13.3041,4.60106,2470.483,2022-9-28T03:44:15Z
2022-09-28T01:45:25Z,42.805,6.029,13.3046,4.60123,2470.483,2022-9-28T03:47:18Z
2022-09-28T01:48:28Z,42.805,6.029,13.3046,4.60111,2470.46,2022-9-28T03:50:21Z
2022-09-28T01:51:31Z,42.805,6.029,13.3051,4.60112,2470.437,2022-9-28T03:53:24Z
2022-09-28T01:54:34Z,42.805,6.029,13.3046,4.60115,2470.437,2022-9-28T03:56:27Z
2022-09-28T01:57:37Z,42.805,6.029,13.3056,4.60110,2470.446,2022-9-28T03:59:31Z
2022-09-28T02:00:40Z,42.805,6.029,13.3053,4.60102,2470.497,2022-9-28T04:02:34Z
2022-09-28T02:03:43Z,42.805,6.029,13.3078,4.60130,2470.474,2022-9-28T04:05:37Z
2022-09-28T02:06:46Z,42.805,6.029,13.3062,4.60127,2470.474,2022-9-28T04:08:40Z
2022-09-28T02:09:49Z,42.805,6.029,13.3090,4.60166,2470.437,2022-9-28T04:11:43Z
2022-09-28T02:12:53Z,42.805,6.029,13.3053,4.60140,2470.46,2022-9-28T04:14:46Z
2022-09-28T02:15:56Z,42.805,6.029,13.3093,4.60136,2470.46,2022-9-28T04:17:49Z
2022-09-28T02:18:59Z,42.805,6.029,13.3107,4.60120,2470.483,2022-9-28T04:20:52Z
2022-09-28T02:22:02Z,42.805,6.029,13.3094,4.60143,2470.46,2022-9-28T04:23:56Z
2022-09-28T02:25:05Z,42.805,6.029,13.3076,4.60144,2470.46,2022-9-28T04:26:59Z
2022-09-28T02:28:08Z,42.805,6.029,13.3081,4.60126,2470.46,2022-9-28T04:30:02Z
2022-09-28T02:31:11Z,42.805,6.029,13.3082,4.60160,2470.427,2022-9-28T04:33:05Z
2022-09-28T02:34:14Z,42.805,6.029,13.3087,4.60160,2470.46,2022-9-28T04:36:08Z
2022-09-28T02:37:18Z,42.805,6.029,13.3105,4.60161,2470.474,2022-9-28T04:39:11Z
2022-09-28T02:40:21Z,42.805,6.029,13.3105,4.60141,2470.474,2022-9-28T04:42:14Z
2022-09-28T02:43:24Z,42.805,6.029,13.3109,4.60148,2470.474,2022-9-28T04:45:17Z
2022-09-28T02:46:27Z,42.805,6.029,13.3106,4.60155,2470.437,2022-9-28T04:48:21Z
2022-09-28T02:49:30Z,42.805,6.029,13.3088,4.60119,2470.45,2022-9-28T04:51:24Z
2022-09-28T02:52:33Z,42.805,6.029,13.3069,4.60140,2470.437,2022-9-28T04:54:27Z
2022-09-28T02:55:36Z,42.805,6.029,13.3073,4.60106,2470.46,2022-9-28T04:57:30Z
2022-09-28T02:58:39Z,42.805,6.029,13.3039,4.60115,2470.497,2022-9-28T05:00:33Z
2022-09-28T03:01:43Z,42.805,6.029,13.3061,4.60102,2470.413,2022-9-28T05:03:36Z
2022-09-28T03:04:46Z,42.805,6.029,13.3079,4.60160,2470.437,2022-9-28T05:06:39Z
2022-09-28T03:07:49Z,42.805,6.029,13.3076,4.60116,2470.46,2022-9-28T05:09:42Z
2022-09-28T03:10:52Z,42.805,6.029,13.3077,4.60115,2470.46,2022-9-28T05:12:45Z
2022-09-28T03:13:55Z,42.805,6.029,13.3083,4.60151,2470.483,2022-9-28T05:15:49Z
2022-09-28T03:16:58Z,42.805,6.029,13.3102,4.60106,2470.413,2022-9-28T05:18:52Z
2022-09-28T03:20:01Z,42.805,6.029,13.3068,4.60152,2470.45,2022-9-28T05:21:55Z
2022-09-28T03:23:04Z,42.805,6.029,13.3074,4.60121,2470.46,2022-9-28T05:24:58Z
2022-09-28T03:26:07Z,42.805,6.029,13.3086,4.60108,2470.45,2022-9-28T05:28:01Z
2022-09-28T03:29:11Z,42.805,6.029,13.3076,4.60081,2470.46,2022-9-28T05:31:04Z
2022-09-28T03:32:14Z,42.805,6.029,13.3052,4.60076,2470.474,2022-9-28T05:34:07Z
2022-09-28T03:35:17Z,42.805,6.029,13.3070,4.60091,2470.45,2022-9-28T05:37:10Z
2022-09-28T03:38:20Z,42.805,6.029,13.3063,4.60088,2470.45,2022-9-28T05:40:14Z
2022-09-28T03:41:23Z,42.805,6.029,13.3063,4.60115,2470.437,2022-9-28T05:43:17Z
2022-09-28T03:44:26Z,42.805,6.029,13.3061,4.60140,2470.474,2022-9-28T05:46:20Z
2022-09-28T03:47:29Z,42.805,6.029,13.3060,4.60128,2470.483,2022-9-28T05:49:23Z
2022-09-28T03:50:32Z,42.805,6.029,13.3058,4.60098,2470.46,2022-9-28T05:52:26Z
2022-09-28T03:53:36Z,42.805,6.029,13.3049,4.60082,2470.437,2022-9-28T05:55:29Z
2022-09-28T03:56:39Z,42.805,6.029,13.3053,4.60084,2470.497,2022-9-28T05:58:32Z
2022-09-28T03:59:42Z,42.805,6.029,13.3048,4.60074,2470.474,2022-9-28T06:01:35Z
2022-09-28T04:02:45Z,42.805,6.029,13.3046,4.60084,2470.437,2022-9-28T06:04:39Z
2022-09-28T04:05:48Z,42.805,6.029,13.3052,4.60108,2470.45,2022-9-28T06:07:42Z
2022-09-28T04:08:51Z,42.805,6.029,13.3064,4.60086,2470.46,2022-9-28T06:10:45Z
2022-09-28T04:11:54Z,42.805,6.029,13.3043,4.60067,2470.46,2022-9-28T06:13:48Z
2022-09-28T04:14:57Z,42.805,6.029,13.3039,4.60091,2470.52,2022-9-28T06:16:51Z
2022-09-28T04:18:01Z,42.805,6.029,13.3056,4.60097,2470.46,2022-9-28T06:19:54Z
2022-09-28T04:21:04Z,42.805,6.029,13.3041,4.60109,2470.497,2022-9-28T06:22:57Z
2022-09-28T04:24:07Z,42.805,6.029,13.3054,4.60126,2470.507,2022-9-28T06:26:00Z
2022-09-28T04:27:10Z,42.805,6.029,13.3026,4.60100,2470.507,2022-9-28T06:29:04Z
2022-09-28T04:30:13Z,42.805,6.029,13.3050,4.60097,2470.497,2022-9-28T06:32:07Z
2022-09-28T04:33:16Z,42.805,6.029,13.3058,4.60090,2470.437,2022-9-28T06:35:10Z
2022-09-28T04:36:19Z,42.805,6.029,13.3047,4.60098,2470.497,2022-9-28T06:38:13Z
2022-09-28T04:39:22Z,42.805,6.029,13.3054,4.60123,2470.497,2022-9-28T06:41:16Z
2022-09-28T04:42:26Z,42.805,6.029,13.3051,4.60128,2470.497,2022-9-28T06:44:19Z
2022-09-28T04:45:29Z,42.805,6.029,13.3063,4.60105,2470.497,2022-9-28T06:47:22Z
2022-09-28T04:48:32Z,42.805,6.029,13.3074,4.60103,2470.53,2022-9-28T06:50:25Z
2022-09-28T04:51:35Z,42.805,6.029,13.3063,4.60078,2470.544,2022-9-28T06:53:29Z
2022-09-28T04:54:38Z,42.805,6.029,13.3056,4.60084,2470.483,2022-9-28T06:56:32Z
2022-09-28T04:57:41Z,42.805,6.029,13.3071,4.60097,2470.53,2022-9-28T06:59:35Z
2022-09-28T05:00:44Z,42.805,6.029,13.3070,4.60097,2470.53,2022-9-28T07:02:38Z
2022-09-28T05:03:47Z,42.805,6.029,13.3042,4.60084,2470.507,2022-9-28T07:05:41Z
2022-09-28T05:06:51Z,42.805,6.029,13.3070,4.60087,2470.52,2022-9-28T07:08:44Z
2022-09-28T05:09:54Z,42.805,6.029,13.3053,4.60099,2470.52,2022-9-28T07:11:47Z
2022-09-28T05:12:57Z,42.805,6.029,13.3076,4.60084,2470.544,2022-9-28T07:14:50Z
2022-09-28T05:16:00Z,42.805,6.029,13.3090,4.60119,2470.544,2022-9-28T07:17:53Z
2022-09-28T05:19:03Z,42.805,6.029,13.3054,4.60095,2470.497,2022-9-28T07:20:57Z
2022-09-28T05:22:06Z,42.805,6.029,13.3054,4.60119,2470.544,2022-9-28T07:24:00Z
2022-09-28T05:25:09Z,42.805,6.029,13.3058,4.60090,2470.553,2022-9-28T07:27:03Z
2022-09-28T05:28:12Z,42.805,6.029,13.3056,4.60097,2470.52,2022-9-28T07:30:06Z
2022-09-28T05:31:16Z,42.805,6.029,13.3024,4.60099,2470.52,2022-9-28T07:33:09Z
2022-09-28T05:34:19Z,42.805,6.029,13.3061,4.60095,2470.53,2022-9-28T07:36:12Z
2022-09-28T05:37:22Z,42.805,6.029,13.3056,4.60089,2470.553,2022-9-28T07:39:15Z
2022-09-28T05:40:25Z,42.805,6.029,13.3055,4.60125,2470.544,2022-9-28T07:42:18Z
2022-09-28T05:43:28Z,42.805,6.029,13.3073,4.60080,2470.567,2022-9-28T07:45:22Z
2022-09-28T05:46:31Z,42.805,6.029,13.3054,4.60082,2470.567,2022-9-28T07:48:25Z
2022-09-28T05:49:34Z,42.805,6.029,13.3060,4.60088,2470.567,2022-9-28T07:51:28Z
2022-09-28T05:52:37Z,42.805,6.029,13.3049,4.60097,2470.553,2022-9-28T07:54:31Z
2022-09-28T05:55:40Z,42.805,6.029,13.3041,4.60087,2470.553,2022-9-28T07:57:34Z
2022-09-28T05:58:44Z,42.805,6.029,13.3037,4.60072,2470.591,2022-9-28T08:00:37Z
2022-09-28T06:01:47Z,42.805,6.029,13.3041,4.60092,2470.53,2022-9-28T08:03:40Z
2022-09-28T06:04:50Z,42.805,6.029,13.3035,4.60069,2470.553,2022-9-28T08:06:43Z
2022-09-28T06:07:53Z,42.805,6.029,13.3051,4.60068,2470.553,2022-9-28T08:09:47Z
2022-09-28T06:10:56Z,42.805,6.029,13.3036,4.60079,2470.614,2022-9-28T08:12:50Z
2022-09-28T06:13:59Z,42.805,6.029,13.3036,4.60084,2470.567,2022-9-28T08:15:53Z
2022-09-28T06:17:02Z,42.805,6.029,13.3039,4.60088,2470.577,2022-9-28T08:18:56Z
2022-09-28T06:20:05Z,42.805,6.029,13.3042,4.60079,2470.567,2022-9-28T08:21:59Z
2022-09-28T06:23:09Z,42.805,6.029,13.3044,4.60091,2470.591,2022-9-28T08:25:02Z
2022-09-28T06:26:12Z,42.805,6.029,13.3046,4.60076,2470.614,2022-9-28T08:28:05Z
2022-09-28T06:29:15Z,42.805,6.029,13.3046,4.60093,2470.614,2022-9-28T08:31:08Z
2022-09-28T06:32:18Z,42.805,6.029,13.3039,4.60090,2470.591,2022-9-28T08:34:12Z
2022-09-28T06:35:21Z,42.805,6.029,13.3034,4.60076,2470.591,2022-9-28T08:37:15Z
2022-09-28T06:38:24Z,42.805,6.029,13.3041,4.60087,2470.586,2022-9-28T08:40:18Z
2022-09-28T06:41:27Z,42.805,6.029,13.3038,4.60084,2470.577,2022-9-28T08:43:21Z
2022-09-28T06:44:30Z,42.805,6.029,13.3045,4.60079,2470.6,2022-9-28T08:46:24Z
2022-09-28T06:47:34Z,42.805,6.029,13.3048,4.60077,2470.624,2022-9-28T08:49:27Z
2022-09-28T06:50:37Z,42.805,6.029,13.3037,4.60081,2470.577,2022-9-28T08:52:30Z
2022-09-28T06:53:40Z,42.805,6.029,13.3045,4.60081,2470.6,2022-9-28T08:55:33Z
2022-09-28T06:56:43Z,42.805,6.029,13.3053,4.60081,2470.6,2022-9-28T08:58:36Z
2022-09-28T06:59:46Z,42.805,6.029,13.3053,4.60072,2470.637,2022-9-28T09:01:40Z
2022-09-28T07:02:49Z,42.805,6.029,13.3036,4.60083,2470.646,2022-9-28T09:04:43Z
2022-09-28T07:05:52Z,42.805,6.029,13.3048,4.60087,2470.614,2022-9-28T09:07:46Z
2022-09-28T07:08:55Z,42.805,6.029,13.3059,4.60079,2470.624,2022-9-28T09:10:49Z
2022-09-28T07:11:59Z,42.805,6.029,13.3048,4.60068,2470.637,2022-9-28T09:13:52Z
2022-09-28T07:15:02Z,42.805,6.029,13.3040,4.60080,2470.646,2022-9-28T09:16:55Z
2022-09-28T07:18:05Z,42.805,6.029,13.3052,4.60078,2470.646,2022-9-28T09:19:58Z
2022-09-28T07:21:08Z,42.805,6.029,13.3054,4.60081,2470.661,2022-9-28T09:23:01Z
2022-09-28T07:24:11Z,42.805,6.029,13.3059,4.60086,2470.661,2022-9-28T09:26:05Z
2022-09-28T07:27:14Z,42.805,6.029,13.3056,4.60077,2470.684,2022-9-28T09:29:08Z
2022-09-28T07:30:17Z,42.805,6.029,13.3060,4.60077,2470.661,2022-9-28T09:32:11Z
2022-09-28T07:33:20Z,42.805,6.029,13.3048,4.60094,2470.661,2022-9-28T09:35:14Z
2022-09-28T07:36:23Z,42.805,6.029,13.3051,4.60086,2470.684,2022-9-28T09:38:17Z
2022-09-28T07:39:27Z,42.805,6.029,13.3051,4.60079,2470.684,2022-9-28T09:41:20Z
2022-09-28T07:42:30Z,42.805,6.029,13.3035,4.60102,2470.646,2022-9-28T09:44:23Z
2022-09-28T07:45:33Z,42.805,6.029,13.3042,4.60077,2470.646,2022-9-28T09:47:26Z
2022-09-28T07:48:36Z,42.805,6.029,13.3060,4.60075,2470.661,2022-9-28T09:50:30Z
2022-09-28T07:51:39Z,42.805,6.029,13.3050,4.60089,2470.646,2022-9-28T09:53:33Z
2022-09-28T07:54:42Z,42.805,6.029,13.3059,4.60082,2470.646,2022-9-28T09:56:36Z
2022-09-28T07:57:45Z,42.805,6.029,13.3041,4.60077,2470.637,2022-9-28T09:59:39Z
2022-09-28T08:00:49Z,42.805,6.029,13.3051,4.60082,2470.646,2022-9-28T10:02:42Z
2022-09-28T08:03:52Z,42.805,6.029,13.3044,4.60087,2470.67,2022-9-28T10:05:45Z
2022-09-28T08:06:55Z,42.805,6.029,13.3055,4.60079,2470.646,2022-9-28T10:08:48Z
2022-09-28T08:09:58Z,42.805,6.029,13.3056,4.60079,2470.67,2022-9-28T10:11:51Z
2022-09-28T08:13:01Z,42.805,6.029,13.3068,4.60090,2470.707,2022-9-28T10:14:55Z
2022-09-28T08:16:04Z,42.805,6.029,13.3046,4.60091,2470.67,2022-9-28T10:17:58Z
2022-09-28T08:19:07Z,42.805,6.029,13.3041,4.60086,2470.684,2022-9-28T10:21:01Z
2022-09-28T08:22:10Z,42.805,6.029,13.3052,4.60084,2470.661,2022-9-28T10:24:04Z
2022-09-28T08:25:13Z,42.805,6.029,13.3054,4.60088,2470.67,2022-9-28T10:27:07Z
2022-09-28T08:28:17Z,42.805,6.029,13.3043,4.60081,2470.67,2022-9-28T10:30:10Z
2022-09-28T08:31:20Z,42.805,6.029,13.3037,4.60074,2470.684,2022-9-28T10:33:13Z
2022-09-28T08:34:23Z,42.805,6.029,13.3032,4.60077,2470.67,2022-9-28T10:36:16Z
2022-09-28T08:37:26Z,42.805,6.029,13.3040,4.60088,2470.67,2022-9-28T10:39:20Z
2022-09-28T08:40:29Z,42.805,6.029,13.3065,4.60070,2470.67,2022-9-28T10:42:23Z
2022-09-28T08:43:32Z,42.805,6.029,13.3074,4.60072,2470.693,2022-9-28T10:45:26Z
2022-09-28T08:46:35Z,42.805,6.029,13.3051,4.60085,2470.707,2022-9-28T10:48:29Z
2022-09-28T08:49:39Z,42.805,6.029,13.3055,4.60069,2470.661,2022-9-28T10:51:32Z
2022-09-28T08:52:42Z,42.805,6.029,13.3052,4.60089,2470.67,2022-9-28T10:54:35Z
2022-09-28T08:55:45Z,42.805,6.029,13.3041,4.60085,2470.693,2022-9-28T10:57:38Z
2022-09-28T08:58:48Z,42.805,6.029,13.3050,4.60102,2470.67,2022-9-28T11:00:42Z
2022-09-28T09:01:51Z,42.805,6.029,13.3078,4.60132,2470.67,2022-9-28T11:03:45Z
2022-09-28T09:04:54Z,42.805,6.029,13.3056,4.60082,2470.661,2022-9-28T11:06:48Z
2022-09-28T09:07:57Z,42.805,6.029,13.3073,4.60084,2470.684,2022-9-28T11:09:51Z
2022-09-28T09:11:00Z,42.805,6.029,13.3047,4.60084,2470.646,2022-9-28T11:12:54Z
2022-09-28T09:14:04Z,42.805,6.029,13.3045,4.60084,2470.614,2022-9-28T11:15:57Z
2022-09-28T09:17:07Z,42.805,6.029,13.3051,4.60090,2470.67,2022-9-28T11:19:00Z
2022-09-28T09:20:10Z,42.805,6.029,13.3048,4.60087,2470.637,2022-9-28T11:22:03Z
2022-09-28T09:23:13Z,42.805,6.029,13.3076,4.60084,2470.67,2022-9-28T11:25:06Z
2022-09-28T09:26:16Z,42.805,6.029,13.3085,4.60102,2470.661,2022-9-28T11:28:10Z
2022-09-28T09:29:19Z,42.805,6.029,13.3054,4.60103,2470.67,2022-9-28T11:31:13Z
2022-09-28T09:32:22Z,42.805,6.029,13.3062,4.60096,2470.661,2022-9-28T11:34:16Z
2022-09-28T09:35:25Z,42.805,6.029,13.3046,4.60108,2470.646,2022-9-28T11:37:19Z
2022-09-28T09:38:29Z,42.805,6.029,13.3094,4.60097,2470.637,2022-9-28T11:40:22Z
2022-09-28T09:41:32Z,42.805,6.029,13.3061,4.60089,2470.684,2022-9-28T11:43:25Z
2022-09-28T09:44:35Z,42.805,6.029,13.3043,4.60072,2470.624,2022-9-28T11:46:28Z
2022-09-28T09:47:38Z,42.805,6.029,13.3054,4.60064,2470.646,2022-9-28T11:49:32Z
2022-09-28T09:50:41Z,42.805,6.029,13.3045,4.60076,2470.646,2022-9-28T11:52:35Z
2022-09-28T09:53:44Z,42.805,6.029,13.3046,4.60084,2470.637,2022-9-28T11:55:38Z
2022-09-28T09:56:47Z,42.805,6.029,13.3039,4.60084,2470.624,2022-9-28T11:58:41Z
2022-09-28T09:59:50Z,42.805,6.029,13.3054,4.60090,2470.624,2022-9-28T12:01:44Z
2022-09-28T10:02:54Z,42.805,6.029,13.3043,4.60092,2470.624,2022-9-28T12:04:47Z
2022-09-28T10:05:57Z,42.805,6.029,13.3047,4.60088,2470.637,2022-9-28T12:07:50Z
2022-09-28T10:09:00Z,42.805,6.029,13.3053,4.60076,2470.637,2022-9-28T12:10:53Z
2022-09-28T10:12:03Z,42.805,6.029,13.3073,4.60085,2470.614,2022-9-28T12:13:57Z
2022-09-28T10:15:06Z,42.805,6.029,13.3056,4.60083,2470.646,2022-9-28T12:17:00Z
2022-09-28T10:18:09Z,42.805,6.029,13.3045,4.60087,2470.637,2022-9-28T12:20:03Z
2022-09-28T10:21:12Z,42.805,6.029,13.3057,4.60077,2470.637,2022-9-28T12:23:06Z
2022-09-28T10:24:15Z,42.805,6.029,13.3052,4.60079,2470.637,2022-9-28T12:26:09Z
2022-09-28T10:27:19Z,42.805,6.029,13.3058,4.60094,2470.637,2022-9-28T12:29:12Z
2022-09-28T10:30:22Z,42.805,6.029,13.3050,4.60082,2470.6,2022-9-28T12:32:15Z
2022-09-28T10:33:25Z,42.805,6.029,13.3046,4.60110,2470.637,2022-9-28T12:35:18Z
2022-09-28T10:36:28Z,42.805,6.029,13.3048,4.60087,2470.614,2022-9-28T12:38:22Z
2022-09-28T10:39:31Z,42.805,6.029,13.3050,4.60102,2470.637,2022-9-28T12:41:25Z
2022-09-28T10:42:34Z,42.805,6.029,13.3046,4.60090,2470.637,2022-9-28T12:44:28Z
2022-09-28T10:45:37Z,42.805,6.029,13.3077,4.60096,2470.614,2022-9-28T12:47:31Z
2022-09-28T10:48:40Z,42.805,6.029,13.3072,4.60084,2470.637,2022-9-28T12:50:34Z
2022-09-28T10:51:44Z,42.805,6.029,13.3070,4.60092,2470.614,2022-9-28T12:53:37Z
2022-09-28T10:54:47Z,42.805,6.029,13.3046,4.60092,2470.6,2022-9-28T12:56:40Z
2022-09-28T10:57:50Z,42.805,6.029,13.3063,4.60081,2470.6,2022-9-28T12:59:43Z
2022-09-28T11:00:53Z,42.805,6.029,13.3054,4.60094,2470.577,2022-9-28T13:02:47Z
2022-09-28T11:03:56Z,42.805,6.029,13.3076,4.60078,2470.637,2022-9-28T13:05:50Z
2022-09-28T11:06:59Z,42.805,6.029,13.3057,4.60097,2470.6,2022-9-28T13:08:53Z
2022-09-28T11:10:02Z,42.805,6.029,13.3069,4.60088,2470.6,2022-9-28T13:11:56Z
2022-09-28T11:13:05Z,42.805,6.029,13.3058,4.60089,2470.591,2022-9-28T13:14:59Z
2022-09-28T11:16:09Z,42.805,6.029,13.3049,4.60081,2470.591,2022-9-28T13:18:02Z
2022-09-28T11:19:12Z,42.805,6.029,13.3068,4.60072,2470.591,2022-9-28T13:21:05Z
2022-09-28T11:22:15Z,42.805,6.029,13.3035,4.60087,2470.6,2022-9-28T13:24:08Z
2022-09-28T11:25:18Z,42.805,6.029,13.3061,4.60081,2470.577,2022-9-28T13:27:12Z
2022-09-28T11:28:21Z,42.805,6.029,13.3052,4.60080,2470.6,2022-9-28T13:30:15Z
2022-09-28T11:31:24Z,42.805,6.029,13.3059,4.60076,2470.591,2022-9-28T13:33:18Z
2022-09-28T11:34:27Z,42.805,6.029,13.3057,4.60084,2470.577,2022-9-28T13:36:21Z
2022-09-28T11:37:30Z,42.805,6.029,13.3051,4.60072,2470.591,2022-9-28T13:39:24Z
2022-09-28T11:40:34Z,42.805,6.029,13.3040,4.60080,2470.591,2022-9-28T13:42:27Z
2022-09-28T11:43:37Z,42.805,6.029,13.3043,4.60083,2470.591,2022-9-28T13:45:30Z
2022-09-28T11:46:40Z,42.805,6.029,13.3043,4.60075,2470.614,2022-9-28T13:48:33Z
2022-09-28T11:49:43Z,42.805,6.029,13.3045,4.60088,2470.614,2022-9-28T13:51:37Z
2022-09-28T11:52:46Z,42.805,6.029,13.3052,4.60086,2470.591,2022-9-28T13:54:40Z
2022-09-28T11:55:49Z,42.805,6.029,13.3052,4.60084,2470.553,2022-9-28T13:57:43Z
2022-09-28T11:58:52Z,42.805,6.029,13.3060,4.60078,2470.553,2022-9-28T14:00:46Z
2022-09-28T12:01:55Z,42.805,6.029,13.3056,4.60085,2470.567,2022-9-28T14:03:49Z
2022-09-28T12:04:59Z,42.805,6.029,13.3051,4.60085,2470.544,2022-9-28T14:06:52Z
2022-09-28T12:08:02Z,42.805,6.029,13.3051,4.60092,2470.567,2022-9-28T14:09:55Z
2022-09-28T12:11:05Z,42.805,6.029,13.3057,4.60091,2470.591,2022-9-28T14:12:58Z
2022-09-28T12:14:08Z,42.805,6.029,13.3052,4.60088,2470.591,2022-9-28T14:16:02Z
2022-09-28T12:17:11Z,42.805,6.029,13.3052,4.60092,2470.553,2022-9-28T14:19:05Z
2022-09-28T12:20:14Z,42.805,6.029,13.3058,4.60097,2470.567,2022-9-28T14:22:08Z
2022-09-28T12:23:17Z,42.805,6.029,13.3060,4.60081,2470.553,2022-9-28T14:25:11Z
2022-09-28T12:26:20Z,42.805,6.029,13.3052,4.60084,2470.53,2022-9-28T14:28:14Z
2022-09-28T12:29:24Z,42.805,6.029,13.3048,4.60076,2470.53,2022-9-28T14:31:17Z
2022-09-28T12:32:27Z,42.805,6.029,13.3050,4.60079,2470.544,2022-9-28T14:34:20Z
2022-09-28T12:35:30Z,42.805,6.029,13.3056,4.60088,2470.52,2022-9-28T14:37:23Z
2022-09-28T12:38:33Z,42.805,6.029,13.3034,4.60089,2470.553,2022-9-28T14:40:27Z
2022-09-28T12:41:36Z,42.805,6.029,13.3062,4.60079,2470.53,2022-9-28T14:43:30Z
2022-09-28T12:44:39Z,42.805,6.029,13.3067,4.60075,2470.544,2022-9-28T14:46:33Z
2022-09-28T12:47:42Z,42.805,6.029,13.3038,4.60095,2470.52,2022-9-28T14:49:36Z
2022-09-28T12:50:45Z,42.805,6.029,13.3046,4.60084,2470.53,2022-9-28T14:52:39Z
2022-09-28T12:53:49Z,42.805,6.029,13.3055,4.60078,2470.52,2022-9-28T14:55:42Z
2022-09-28T12:56:52Z,42.805,6.029,13.3055,4.60081,2470.483,2022-9-28T14:58:45Z
2022-09-28T12:59:55Z,42.805,6.029,13.3061,4.60086,2470.52,2022-9-28T15:01:48Z
2022-09-28T13:02:58Z,42.805,6.029,13.3060,4.60083,2470.52,2022-9-28T15:04:52Z
2022-09-28T13:06:01Z,42.805,6.029,13.3064,4.60084,2470.52,2022-9-28T15:07:55Z
2022-09-28T13:09:04Z,42.805,6.029,13.3063,4.60085,2470.553,2022-9-28T15:10:58Z
2022-09-28T13:12:07Z,42.805,6.029,13.3065,4.60077,2470.507,2022-9-28T15:14:01Z
2022-09-28T13:15:10Z,42.805,6.029,13.3059,4.60083,2470.53,2022-9-28T15:17:04Z
2022-09-28T13:18:14Z,42.805,6.029,13.3043,4.60097,2470.544,2022-9-28T15:20:07Z
2022-09-28T13:21:17Z,42.805,6.029,13.3046,4.60080,2470.52,2022-9-28T15:23:10Z
2022-09-28T13:24:20Z,42.805,6.029,13.3048,4.60081,2470.483,2022-9-28T15:26:13Z
2022-09-28T13:27:23Z,42.805,6.029,13.3073,4.60081,2470.52,2022-9-28T15:29:17Z
2022-09-28T13:30:26Z,42.805,6.029,13.3058,4.60087,2470.483,2022-9-28T15:32:20Z
2022-09-28T13:33:29Z,42.805,6.029,13.3054,4.60081,2470.507,2022-9-28T15:35:23Z
2022-09-28T13:36:32Z,42.805,6.029,13.3057,4.60074,2470.46,2022-9-28T15:38:26Z
2022-09-28T13:39:36Z,42.805,6.029,13.3039,4.60092,2470.52,2022-9-28T15:41:29Z
2022-09-28T13:42:39Z,42.805,6.029,13.3052,4.60091,2470.483,2022-9-28T15:44:32Z
2022-09-28T13:45:42Z,42.805,6.029,13.3068,4.60089,2470.507,2022-9-28T15:47:35Z
2022-09-28T13:48:45Z,42.805,6.029,13.3062,4.60102,2470.474,2022-9-28T15:50:38Z
2022-09-28T13:51:48Z,42.805,6.029,13.3056,4.60081,2470.507,2022-9-28T15:53:42Z
2022-09-28T13:54:51Z,42.805,6.029,13.3062,4.60090,2470.52,2022-9-28T15:56:45Z
2022-09-28T13:57:54Z,42.805,6.029,13.3051,4.60087,2470.437,2022-9-28T15:59:48Z
2022-09-28T14:00:57Z,42.805,6.029,13.3067,4.60085,2470.483,2022-9-28T16:02:51Z
2022-09-28T14:04:01Z,42.805,6.029,13.3069,4.60079,2470.497,2022-9-28T16:05:54Z
2022-09-28T14:07:04Z,42.805,6.029,13.3064,4.60083,2470.474,2022-9-28T16:08:57Z
2022-09-28T14:10:07Z,42.805,6.029,13.3067,4.60095,2470.46,2022-9-28T16:12:00Z
2022-09-28T14:13:10Z,42.805,6.029,13.3068,4.60088,2470.46,2022-9-28T16:15:04Z
2022-09-28T14:16:13Z,42.805,6.029,13.3070,4.60092,2470.497,2022-9-28T16:18:07Z
2022-09-28T14:19:16Z,42.805,6.029,13.3071,4.60097,2470.483,2022-9-28T16:21:10Z
2022-09-28T14:22:19Z,42.805,6.029,13.3071,4.60072,2470.52,2022-9-28T16:24:13Z
2022-09-28T14:25:22Z,42.805,6.029,13.3070,4.60102,2470.474,2022-9-28T16:27:16Z
2022-09-28T14:28:26Z,42.805,6.029,13.3070,4.60102,2470.46,2022-9-28T16:30:19Z
2022-09-28T14:31:29Z,42.805,6.029,13.3093,4.60090,2470.474,2022-9-28T16:33:22Z
2022-09-28T14:34:32Z,42.805,6.029,13.3075,4.60079,2470.483,2022-9-28T16:36:25Z
2022-09-28T14:37:35Z,42.805,6.029,13.3091,4.60081,2470.46,2022-9-28T16:39:29Z
2022-09-28T14:40:38Z,42.805,6.029,13.3092,4.60071,2470.507,2022-9-28T16:42:32Z
2022-09-28T14:43:41Z,42.805,6.029,13.3054,4.60095,2470.52,2022-9-28T16:45:35Z
2022-09-28T14:46:44Z,42.805,6.029,13.3067,4.60082,2470.46,2022-9-28T16:48:38Z
2022-09-28T14:49:47Z,42.805,6.029,13.3048,4.60097,2470.52,2022-9-28T16:51:41Z
2022-09-28T14:52:51Z,42.805,6.029,13.3068,4.60074,2470.437,2022-9-28T16:54:44Z
2022-09-28T14:55:54Z,42.805,6.029,13.3076,4.60072,2470.46,2022-9-28T16:57:47Z
2022-09-28T14:58:57Z,42.805,6.029,13.3048,4.60079,2470.474,2022-9-28T17:00:50Z
2022-09-28T15:02:00Z,42.805,6.029,13.3054,4.60081,2470.483,2022-9-28T17:03:54Z
2022-09-28T15:05:03Z,42.805,6.029,13.3051,4.60080,2470.483,2022-9-28T17:06:57Z
2022-09-28T15:08:06Z,42.805,6.029,13.3062,4.60084,2470.483,2022-9-28T17:10:00Z
2022-09-28T15:11:09Z,42.805,6.029,13.3054,4.60082,2470.483,2022-9-28T17:13:03Z
2022-09-28T15:14:12Z,42.805,6.029,13.3058,4.60081,2470.497,2022-9-28T17:16:06Z